Regional Weather Roundup
Issued by NWS

Home | Current Version | Previous Version | Graphics & Text | Print | Product List | Glossary On
Versions: 1 2 3 4 5 6 7 8 9 10 11 12 13 14 15 16 17 18 19 20 21 22 23 24 25 26 27 28 29 30 31 32 33 34 35 36 37 38 39 40 41 42 43 44 45 46 47 48 49 50
000
ASUS43 KFSD 181210
RWRSD

WEATHER ROUNDUP FOR SOUTH DAKOTA
NATIONAL WEATHER SERVICE SIOUX FALLS SD
600 AM CST SAT NOV 18 2017

NOTE: "FAIR" INDICATES FEW OR NO CLOUDS BELOW 12,000 FEET WITH NO
SIGNIFICANT WEATHER AND/OR OBSTRUCTIONS TO VISIBILITY.


SDZ001>005-009-010-012>017-181300-
NORTHWEST AND NORTH CENTRAL SOUTH DAKOTA

CITY           SKY/WX    TMP DP  RH WIND       PRES   REMARKS
BUFFALO          N/A     28  21  75 NW9       29.96R WCI  19
FAITH            N/A     29  26  89 W16       29.99R WCI  17
MOBRIDGE       CLEAR     26  20  77 N16G28    29.95R WCI  14
$$

SDZ012>016-024>037-041>051-057-063-072>074-181300-
SOUTHWEST AND SOUTH CENTRAL SOUTH DAKOTA

CITY           SKY/WX    TMP DP  RH WIND       PRES   REMARKS
RAPID CTY ARPT CLEAR     34  20  56 NW21      30.04R WCI  22
PIERRE         CLEAR     32  29  88 NW10      29.95R WCI  24
CUSTER         CLEAR     25  14  63 NW8       30.01R WCI  16
ELLSWORTH AFB  CLEAR     35  19  53 NW20G31   30.02R WCI  24
PHILIP         CLEAR     33  29  85 NW16      30.01R WCI  23
PINE RIDGE     CLEAR     25  23  92 W3        30.06R
SPEARFISH      FAIR      32  18  55 W16G23    30.05R WCI  21
WINNER         FAIR      36  31  82 NW12G21   29.96R
$$

SDZ004>011-016>023-039-040-181300-
NORTHEAST SOUTH DAKOTA

CITY           SKY/WX    TMP DP  RH WIND       PRES   REMARKS
ABERDEEN       PTCLDY    17  15  92 N6        29.93R WCI   9
WATERTOWN      PTCLDY    24  20  84 NW15      29.85R WCI  11
BROOKINGS      CLEAR     26  21  81 NW8       29.84R WCI  18
SISSETON         N/A     21  17  84 NW10      29.89R WCI  10
$$

SDZ017-020-022-023-036>040-048>070-181300-
SOUTHEAST SOUTH DAKOTA

CITY           SKY/WX    TMP DP  RH WIND       PRES   REMARKS
SIOUX FALLS    CLOUDY    33  25  72 N9        29.85R WCI  25
HURON          CLEAR     22  18  85 N5        29.91R WCI  16
CHAMBERLAIN    CLEAR     36  35  96 W8        29.93R
MITCHELL       PTCLDY    28  21  75 NW7       29.91R WCI  21
YANKTON        CLOUDY    33  24  69 NW13      29.88R WCI  24
$$

ABBREVIATIONS USED IN REMARKS
   TC - TEMPERATURE IN CELSIUS
  WCI - WIND CHILL INDEX
   HX - HEAT INDEX
  VSB - VISIBILITY





USA.gov is the U.S. government's official web portal to all federal, state and local government web resources and services.